Location: ???????
(55.7027°N, 37.3832°E)
Time: 08:34:02
(UTC+00:00)

ATLAS 3B R/B - Pass Details

Date: 14 April 2026
Orbit: 937 x 1257 km, 63.8° (Epoch: 9 May)

Event Time Altitude Azimuth Distance (km) Brightness Sun altitude
Rises 23:32:25 0° 311° (NW) 4,217 5.9 -19.9°
Reaches altitude 10° 23:35:18 10° 308° (NW) 3,238 5.3 -19.6°
Maximum altitude 23:42:55 56° 233° (SW) 1,423 3.0 -19.0°
Drops below altitude 10° 23:50:08 10° 158° (SSE) 3,072 4.8 -18.5°
Sets 23:52:48 0° 154° (SSE) 3,988 5.4 -18.2°
